Home   Weather   Kralendijk   Past weeks

Flag for Caribbean Netherlands Past Weather in Kralendijk, Bonaire, Caribbean Netherlands — Yesterday and Last 2 Weeks

Now
79 °F

Passing clouds.


Feels Like: 82 °F
Forecast: 78 / 85 °F
Wind: 14 mph from East

Location: Flamingo Airport - Bonaire

Current Time: Feb 27, 2017 at 1:05:22 am

Latest Report: Feb 26, 2017 at 11:55 pm


Visibility: N/A

Pressure: 29.95 "Hg

Humidity: 79%

Dew Point: 72 °F

Location of KralendijkLocation

Past Weather in Kralendijk — Graph

°F

Kralendijk Temperature Yesterday

Maximum temperature yesterday: 86 °F (at 12:55 pm)
Minimum temperature yesterday: 79 °F (at 12:55 am)
Average temperature yesterday: 82 °F

High & Low Weather Summary for the Past Weeks

 TemperatureHumidityPressure
High88 °F (Feb 20, 1:55 pm)100% (Feb 12, 12:55 am)30.04 "Hg (Feb 12, 12:55 am)
Low72 °F (Feb 12, 12:55 am)43% (Feb 18, 12:55 pm)29.80 "Hg (Feb 22, 3:55 pm)
Average79 °F73%29.92 "Hg
* Reported Feb 11 10:55 pm — Feb 26 10:55 pm, Kralendijk, Weather by CustomWeather, © 2017

Note: Actual official high and low records may vary slightly from our data, if they occured in-between our weather recording intervals... More about our weather records

Advertising

Kralendijk Weather History for the Previous 24 Hours

Scroll right to see more
 ConditionsComfort  
Time TempWeatherWind HumidityBarometerVisibility
10:55 pm
Sun, Feb 26
79 °FPassing clouds.13 mph84%29.95 "HgN/A
9:55 pm79 °FPassing clouds.13 mph79%29.95 "HgN/A
8:55 pm81 °FPassing clouds.14 mph74%29.95 "HgN/A
7:55 pm81 °FPassing clouds.12 mph74%29.92 "HgN/A
6:55 pm81 °FPassing clouds.13 mph74%29.92 "HgN/A
5:55 pm82 °FScattered clouds.13 mph70%29.92 "HgN/A
4:55 pm84 °FScattered clouds.14 mph66%29.92 "HgN/A
3:55 pm86 °FBroken clouds.13 mph59%29.92 "HgN/A
2:55 pm86 °FBroken clouds.14 mph55%29.92 "HgN/A
1:55 pm86 °FBroken clouds.15 mph59%29.95 "HgN/A
12:55 pm86 °FBroken clouds.17 mph59%29.95 "HgN/A
11:55 am84 °FBroken clouds.16 mph66%29.98 "HgN/A
10:55 am84 °FScattered clouds.16 mph66%29.98 "HgN/A
9:55 am82 °FScattered clouds.17 mph70%29.98 "HgN/A
8:55 am84 °FScattered clouds.16 mph66%29.95 "HgN/A
7:55 am81 °FPassing clouds.15 mph74%29.95 "HgN/A
6:55 am79 °FClear.16 mph79%29.92 "HgN/A
5:55 am79 °FWarm.14 mph79%29.89 "HgN/A
4:55 am79 °FPassing clouds.10 mph84%29.89 "HgN/A
3:55 am79 °FWarm.14 mph84%29.89 "HgN/A
2:55 am79 °FPassing clouds.13 mph84%29.89 "HgN/A
1:55 am79 °FPassing clouds.15 mph84%29.89 "HgN/A
Weather by CustomWeather, © 2017

See weather overviewHow to use our weather pages